FW7858 Weather Reports


Display with metric or nautical units.
time (UTC)temp
F
wind
direction
speed
MPH
gust
MPH
rain 1hr
in
rain 24hr
in
rain mn
in
humidity
%
barometer
mb
20260901152541 71 239 7.0 11.0 0.00 0.00 0.00 68 1012.6
20260901152041 71 227 7.0 11.0 0.00 0.00 0.00 67 1012.6
20260901151544 71 225 7.0 12.0 0.00 0.00 0.00 69 1012.6
20260901151039 71 202 7.0 10.0 0.00 0.00 0.00 71 1012.5
20260901150537 70 196 5.0 10.0 0.00 0.00 0.00 71 1012.5
20260901150036 70 224 5.0 9.0 0.00 0.00 0.00 73 1012.4
20260901145535 69 192 5.0 7.0 0.00 0.00 0.00 76 1012.2
20260901145034 68 208 3.0 7.0 0.00 0.00 0.00 78 1012.1
20260901144533 68 212 4.0 7.0 0.00 0.00 0.00 78 1012.3
20260901144031 67 206 3.0 6.0 0.00 0.00 0.00 80 1012.3
20260901143530 67 171 3.0 5.0 0.00 0.00 0.00 82 1012.2
20260901143032 67 152 0.0 7.0 0.00 0.00 0.00 83 1012.4
20260901142529 67 152 2.0 7.0 0.00 0.00 0.00 84 1012.5
20260901142029 67 167 2.0 5.0 0.00 0.00 0.00 83 1012.6
20260901141529 66 167 3.0 5.0 0.00 0.00 0.00 84 1012.6
20260901141027 66 163 2.0 3.0 0.00 0.00 0.00 84 1012.7
20260901140525 65 163 2.0 5.0 0.00 0.00 0.00 85 1012.7
20260901140023 64 163 2.0 6.0 0.00 0.00 0.00 86 1012.7
20260901135525 63 161 2.0 6.0 0.00 0.00 0.00 89 1012.7
20260901135022 62 186 0.0 0.0 0.00 0.00 0.00 91 1012.9
20260901134536 61 186 0.0 0.0 0.00 0.00 0.00 92 1012.8
20260901134020 61 186 0.0 3.0 0.00 0.00 0.00 93 1012.7
20260901133521 60 186 0.0 3.0 0.00 0.00 0.00 94 1012.5
20260901133019 59 186 1.0 3.0 0.00 0.00 0.00 95 1012.4
20260901132519 59 186 0.0 2.0 0.00 0.00 0.00 96 1012.4
20260901132019 58 360 0.0 3.0 0.00 0.00 0.00 97 1012.4
20260901131520 57 360 1.0 2.0 0.00 0.00 0.00 97 1012.3
20260901131020 55 360 0.0 2.0 0.00 0.00 0.00 96 1012.4
20260901130521 55 360 0.0 0.0 0.00 0.00 0.00 96 1012.4
20260901130018 54 360 0.0 0.0 0.00 0.00 0.00 96 1012.3
20260901125516 54 360 0.0 0.0 0.00 0.00 0.00 95 1012.3
20260901125017 54 360 0.0 0.0 0.00 0.00 0.00 95 1012.3
20260901124522 54 360 0.0 0.0 0.00 0.00 0.00 94 1012.2
20260901124014 53 360 0.0 1.0 0.00 0.00 0.00 94 1012.2
20260901123514 53 360 0.0 1.0 0.00 0.00 0.00 93 1012.2
20260901123013 54 360 0.0 0.0 0.00 0.00 0.00 93 1012.2
20260901122512 54 360 0.0 1.0 0.00 0.00 0.00 93 1012.1
20260901122012 54 360 0.0 1.0 0.00 0.00 0.00 93 1012.0
20260901121513 54 360 0.0 0.0 0.00 0.00 0.00 93 1012.0
20260901121010 54 360 0.0 0.0 0.00 0.00 0.00 93 1011.9
20260901120511 54 360 0.0 0.0 0.00 0.00 0.00 92 1011.9
20260901120006 54 360 0.0 0.0 0.00 0.00 0.00 93 1011.8
20260901115505 54 360 0.0 0.0 0.00 0.00 0.00 92 1011.7
20260901115005 55 360 0.0 0.0 0.00 0.00 0.00 92 1011.6
20260901114504 55 360 0.0 2.0 0.00 0.00 0.00 91 1011.5
20260901114003 55 360 0.0 2.0 0.00 0.00 0.00 91 1011.5
20260901113501 56 360 0.0 2.0 0.00 0.00 0.00 91 1011.5
20260901113000 56 360 0.0 1.0 0.00 0.00 0.00 92 1011.3
20260901112500 56 360 0.0 2.0 0.00 0.00 0.00 92 1011.2
20260901112100 56 360 0.0 4.0 0.00 0.00 0.00 92 1011.3
20260901111601 56 360 1.0 4.0 0.00 0.00 0.00 92 1011.2
20260901111058 56 360 2.0 4.0 0.00 0.00 0.00 89 1011.3
20260901110601 57 360 0.0 0.0 0.00 0.00 0.00 90 1011.2
20260901110105 57 360 0.0 0.0 0.00 0.00 0.00 89 1011.1
20260901105558 57 360 0.0 0.0 0.00 0.00 0.00 90 1011.0
20260901105055 58 360 0.0 0.0 0.00 0.00 0.00 90 1011.0
20260901104553 58 360 0.0 0.0 0.00 0.00 0.00 89 1011.0
20260901104050 59 360 0.0 1.0 0.00 0.00 0.00 89 1010.8
20260901103549 59 360 0.0 3.0 0.00 0.00 0.00 90 1010.6
20260901103050 59 360 1.0 3.0 0.00 0.00 0.00 90 1010.6
20260901102547 60 360 1.0 3.0 0.00 0.00 0.00 90 1010.5
20260901102047 60 360 1.0 3.0 0.00 0.00 0.00 90 1010.4
20260901101609 60 360 0.0 2.0 0.00 0.00 0.00 90 1010.5
20260901101046 60 360 0.0 2.0 0.00 0.00 0.00 90 1010.5
20260901100550 60 360 0.0 2.0 0.00 0.00 0.00 90 1010.5
20260901100100 60 360 0.0 0.0 0.00 0.00 0.00 90 1010.6
20260901095545 60 360 0.0 0.0 0.00 0.00 0.00 89 1010.6
20260901095044 60 360 0.0 0.0 0.00 0.00 0.00 89 1010.7
20260901094544 60 360 0.0 0.0 0.00 0.00 0.00 88 1010.7
20260901094041 61 360 0.0 0.0 0.00 0.00 0.00 88 1010.6
20260901093544 61 360 0.0 0.0 0.00 0.00 0.00 87 1010.6
20260901093041 61 360 0.0 0.0 0.00 0.00 0.00 87 1010.5
20260901092540 61 206 0.0 0.0 0.00 0.00 0.00 87 1010.5
20260901092039 61 206 0.0 0.0 0.00 0.00 0.00 87 1010.5
20260901091539 61 207 0.0 0.0 0.00 0.00 0.00 87 1010.4
20260901091041 61 207 0.0 1.0 0.00 0.00 0.00 87 1010.3
20260901090538 61 207 0.0 1.0 0.00 0.00 0.00 86 1010.3
20260901090040 61 207 0.0 0.0 0.00 0.00 0.00 86 1010.3
20260901085540 61 206 0.0 0.0 0.00 0.00 0.00 86 1010.1
20260901085036 61 206 0.0 0.0 0.00 0.00 0.00 86 1010.1
20260901084543 61 207 0.0 0.0 0.00 0.00 0.00 86 1010.0
20260901084039 61 207 0.0 0.0 0.00 0.00 0.00 86 1010.1
20260901083536 61 207 0.0 0.0 0.00 0.00 0.00 86 1010.2
20260901083037 61 206 0.0 0.0 0.00 0.00 0.00 85 1010.2
20260901082534 61 206 0.0 0.0 0.00 0.00 0.00 85 1010.2
20260901082036 61 206 0.0 0.0 0.00 0.00 0.00 85 1010.3
20260901081535 61 206 0.0 0.0 0.00 0.00 0.00 85 1010.3
20260901081036 61 206 0.0 1.0 0.00 0.00 0.00 85 1010.4
20260901080534 61 207 0.0 1.0 0.00 0.00 0.00 85 1010.3
20260901080041 61 208 0.0 1.0 0.00 0.00 0.00 85 1010.4
20260901075533 61 208 0.0 1.0 0.00 0.00 0.00 84 1010.4
20260901075033 61 208 0.0 2.0 0.00 0.00 0.00 84 1010.3
20260901074532 61 208 0.0 2.0 0.00 0.00 0.00 83 1010.5
20260901074030 61 208 1.0 2.0 0.00 0.00 0.00 83 1010.4
20260901073530 61 208 0.0 1.0 0.00 0.00 0.00 84 1010.5
20260901073032 61 208 0.0 1.0 0.00 0.00 0.00 84 1010.6
20260901072532 61 208 0.0 3.0 0.00 0.00 0.00 84 1010.6
20260901072027 62 208 1.0 3.0 0.00 0.00 0.00 81 1010.7
20260901071527 62 196 0.0 1.0 0.00 0.00 0.00 81 1010.2
20260901071030 62 196 0.0 2.0 0.00 0.00 0.00 80 1010.3
20260901070526 62 196 0.0 2.0 0.00 0.00 0.00 80 1010.3
20260901070027 62 196 0.0 2.0 0.00 0.00 0.00 81 1010.4
20260901065527 62 197 0.0 1.0 0.00 0.00 0.00 81 1010.3
20260901065024 62 197 0.0 2.0 0.00 0.00 0.00 81 1010.3
20260901064528 61 197 0.0 3.0 0.00 0.00 0.00 81 1010.3
20260901064024 61 197 1.0 3.0 0.00 0.00 0.00 81 1010.3
20260901063523 61 197 2.0 4.0 0.00 0.00 0.00 80 1010.4
20260901063021 62 197 3.0 4.0 0.00 0.00 0.00 80 1010.4
20260901062523 62 198 2.0 4.0 0.00 0.00 0.00 79 1010.4
20260901062026 62 198 2.0 4.0 0.00 0.00 0.00 79 1010.4
20260901061520 62 198 2.0 3.0 0.00 0.00 0.00 79 1010.4
20260901061019 62 199 2.0 3.0 0.00 0.00 0.00 79 1010.3
20260901060519 62 200 2.0 3.0 0.00 0.00 0.00 79 1010.3
20260901060017 62 200 2.0 3.0 0.00 0.00 0.00 79 1010.2
20260901055516 62 200 2.0 4.0 0.00 0.00 0.00 78 1010.2
20260901055022 63 200 3.0 4.0 0.00 0.00 0.00 77 1010.3
20260901054515 63 200 2.0 4.0 0.00 0.00 0.00 77 1010.2
20260901054019 63 200 2.0 4.0 0.00 0.00 0.00 77 1010.2
20260901053516 63 200 2.0 4.0 0.00 0.00 0.00 77 1010.2
20260901053018 62 200 1.0 3.0 0.00 0.00 0.00 77 1010.1
20260901052514 62 200 1.0 3.0 0.00 0.00 0.00 77 1010.2
20260901052011 62 200 2.0 3.0 0.00 0.00 0.00 76 1010.1
20260901051511 62 200 0.0 3.0 0.00 0.00 0.00 76 1010.1
20260901051011 62 200 0.0 0.0 0.00 0.00 0.00 77 1010.0
20260901050509 62 200 0.0 0.0 0.00 0.00 0.00 76 1010.0
20260901050007 63 200 0.0 0.0 0.00 0.00 0.00 75 1009.9
20260901045506 63 200 0.0 2.0 0.00 0.00 0.00 75 1009.9
20260901045010 63 200 0.0 2.0 0.00 0.00 0.00 74 1009.8
20260901044506 64 200 0.0 3.0 0.00 0.00 0.00 73 1009.7
20260901044003 65 200 1.0 3.0 0.00 0.00 0.00 71 1009.7
20260901043502 65 200 1.0 3.0 0.00 0.00 0.00 70 1009.6
20260901043003 65 200 0.0 2.0 0.00 0.00 0.00 70 1009.5
20260901042504 65 200 0.0 2.0 0.00 0.00 0.00 70 1009.5
20260901042002 65 200 1.0 2.0 0.00 0.00 0.00 69 1009.4
20260901041503 65 200 1.0 2.0 0.00 0.00 0.00 69 1009.3
20260901041002 65 200 1.0 2.0 0.00 0.00 0.00 69 1009.3
20260901040502 65 200 0.0 0.0 0.00 0.00 0.00 69 1009.5
20260901040001 65 200 0.0 0.0 0.00 0.00 0.00 68 1009.5
20260901035502 66 200 0.0 0.0 0.00 0.00 0.00 67 1009.5
20260901035103 66 200 0.0 0.0 0.00 0.00 0.00 67 1009.5
20260901034607 66 200 0.0 0.0 0.00 0.00 0.00 66 1009.4
20260901034105 67 200 0.0 0.0 0.00 0.00 0.00 65 1009.4
20260901033603 67 200 0.0 0.0 0.00 0.00 0.00 65 1009.4
20260901033100 67 200 0.0 1.0 0.00 0.00 0.00 65 1009.4
20260901032602 67 200 0.0 2.0 0.00 0.00 0.00 65 1009.3
20260901032101 67 200 0.0 3.0 0.00 0.00 0.00 65 1009.4
20260901031700 67 200 1.0 3.0 0.00 0.00 0.00 65 1009.3
20260901031100 66 200 2.0 3.0 0.00 0.00 0.00 66 1009.3
20260901030601 66 200 0.0 1.0 0.00 0.00 0.00 65 1009.3
20260901030502 66 200 0.0 1.0 0.00 0.00 0.00 65 1009.3
20260901030059 66 200 0.0 0.0 0.00 0.00 0.00 65 1009.3
20260901025558 66 200 0.0 2.0 0.00 0.00 0.00 65 1009.3
20260901025058 66 200 0.0 2.0 0.00 0.00 0.00 65 1009.2
20260901024603 67 200 0.0 0.0 0.00 0.00 0.00 66 1009.1
20260901024058 67 200 0.0 0.0 0.00 0.00 0.00 66 1009.1
20260901023558 67 200 0.0 0.0 0.00 0.00 0.00 65 1009.1
20260901023058 67 200 0.0 0.0 0.00 0.00 0.00 64 1009.0
20260901022558 68 200 0.0 0.0 0.00 0.00 0.00 64 1008.9
20260901022058 68 200 0.0 0.0 0.00 0.00 0.00 64 1008.8
20260901021626 68 200 0.0 0.0 0.00 0.00 0.00 63 1008.8
20260901021057 68 200 0.0 0.0 0.00 0.00 0.00 64 1008.8
20260901020558 68 200 0.0 0.0 0.00 0.00 0.00 65 1008.8
20260901020112 68 200 0.0 0.0 0.00 0.00 0.00 63 1008.7
20260901015556 69 200 0.0 1.0 0.00 0.00 0.00 62 1008.6
20260901015058 69 200 0.0 1.0 0.00 0.00 0.00 62 1008.6
20260901014558 70 200 0.0 2.0 0.00 0.00 0.00 60 1008.6
20260901014056 70 200 0.0 3.0 0.00 0.00 0.00 60 1008.4
20260901013556 70 200 1.0 3.0 0.00 0.00 0.00 58 1008.3
20260901013106 71 200 2.0 3.0 0.00 0.00 0.00 58 1008.2
20260901012559 71 200 1.0 4.0 0.00 0.00 0.00 58 1008.3
20260901012058 72 200 2.0 4.0 0.00 0.00 0.00 57 1008.3
20260901011557 72 198 3.0 4.0 0.00 0.00 0.00 58 1008.2
20260901011057 72 194 2.0 4.0 0.00 0.00 0.00 57 1008.2
20260901010556 73 180 3.0 4.0 0.00 0.00 0.00 56 1008.3
20260901010055 73 210 3.0 4.0 0.00 0.00 0.00 55 1008.1
20260901005557 74 212 3.0 4.0 0.00 0.00 0.00 55 1008.1
20260901005055 75 215 2.0 4.0 0.00 0.00 0.00 52 1008.2
20260901004554 76 216 3.0 5.0 0.00 0.00 0.00 51 1008.2
20260901004054 76 216 3.0 5.0 0.00 0.00 0.00 50 1008.2
20260901003554 77 216 3.0 5.0 0.00 0.00 0.00 49 1008.2
20260901003106 77 216 4.0 6.0 0.00 0.00 0.00 47 1008.1
20260901002554 78 215 4.0 8.0 0.00 0.00 0.00 45 1008.1
20260901002054 79 213 5.0 9.0 0.00 0.00 0.00 44 1008.1
20260901001608 79 207 5.0 8.0 0.00 0.00 0.00 43 1008.0
20260901001052 80 209 5.0 8.0 0.00 0.00 0.00 42 1008.1
20260901000552 80 209 6.0 9.0 0.00 0.00 0.00 43 1008.0
20260901000057 81 229 6.0 10.0 0.00 0.00 0.00 41 1008.0
20260831235555 81 203 6.0 10.0 0.00 0.00 0.00 41 1008.0
20260831235052 82 202 7.0 11.0 0.00 0.00 0.00 41 1008.1
20260831234603 82 205 6.0 11.0 0.00 0.00 0.00 42 1008.0
20260831234052 82 210 7.0 11.0 0.00 0.00 0.00 41 1008.0
20260831233553 82 203 6.0 10.0 0.00 0.00 0.00 42 1008.0
20260831233052 83 211 5.0 9.0 0.00 0.00 0.00 43 1008.1
20260831232551 83 207 6.0 10.0 0.00 0.00 0.00 41 1008.1
20260831232050 83 211 7.0 14.0 0.00 0.00 0.00 38 1008.1
20260831231550 83 221 7.0 14.0 0.00 0.00 0.00 37 1008.1
20260831231052 83 243 7.0 12.0 0.00 0.00 0.00 37 1008.1
20260831230551 83 234 9.0 14.0 0.00 0.00 0.00 35 1008.1
20260831230050 83 219 9.0 17.0 0.00 0.00 0.00 35 1008.0
20260831225548 84 207 11.0 17.0 0.00 0.00 0.00 34 1008.0
20260831225048 84 200 9.0 14.0 0.00 0.00 0.00 36 1008.0
20260831224548 84 232 10.0 14.0 0.00 0.00 0.00 35 1007.9
20260831224052 84 207 9.0 13.0 0.00 0.00 0.00 36 1008.0
20260831223548 84 227 9.0 14.0 0.00 0.00 0.00 37 1008.0
20260831223048 84 224 8.0 14.0 0.00 0.00 0.00 37 1008.0
20260831222548 85 208 9.0 15.0 0.00 0.00 0.00 37 1007.9
20260831222051 85 202 10.0 15.0 0.00 0.00 0.00 36 1007.9
20260831221548 84 231 8.0 15.0 0.00 0.00 0.00 37 1007.9
20260831221047 84 235 11.0 15.0 0.00 0.00 0.00 35 1007.9
20260831220546 84 210 11.0 16.0 0.00 0.00 0.00 37 1007.9
20260831220106 85 222 9.0 16.0 0.00 0.00 0.00 37 1008.0
20260831215548 85 202 12.0 16.0 0.00 0.00 0.00 38 1007.9
20260831215045 84 231 8.0 15.0 0.00 0.00 0.00 39 1007.9
20260831214644 84 235 10.0 15.0 0.00 0.00 0.00 39 1008.0
20260831214046 85 240 9.0 16.0 0.00 0.00 0.00 41 1008.0
20260831213544 85 193 8.0 16.0 0.00 0.00 0.00 39 1008.1
20260831213043 85 236 10.0 15.0 0.00 0.00 0.00 39 1008.0
20260831212545 84 229 9.0 15.0 0.00 0.00 0.00 39 1008.0
20260831212043 85 233 9.0 17.0 0.00 0.00 0.00 38 1008.0
20260831211552 85 214 9.0 13.0 0.00 0.00 0.00 37 1008.0
20260831211041 84 230 9.0 13.0 0.00 0.00 0.00 40 1008.1
20260831210542 84 213 10.0 13.0 0.00 0.00 0.00 41 1008.2
20260831210048 84 225 9.0 16.0 0.00 0.00 0.00 40 1008.2
20260831205538 84 219 9.0 16.0 0.00 0.00 0.00 39 1008.3
20260831205039 84 221 9.0 14.0 0.00 0.00 0.00 41 1008.4
20260831204538 83 242 8.0 14.0 0.00 0.00 0.00 43 1008.4
20260831204038 83 214 9.0 14.0 0.00 0.00 0.00 41 1008.3
20260831203537 84 221 8.0 12.0 0.00 0.00 0.00 42 1008.4
20260831203036 83 246 6.0 14.0 0.00 0.00 0.00 44 1008.5
20260831202535 83 230 9.0 14.0 0.00 0.00 0.00 43 1008.5
20260831202034 83 210 9.0 12.0 0.00 0.00 0.00 44 1008.5
20260831201543 82 223 5.0 13.0 0.00 0.00 0.00 43 1008.6
20260831201034 83 234 9.0 12.0 0.00 0.00 0.00 43 1008.6
20260831200534 82 240 8.0 14.0 0.00 0.00 0.00 44 1008.6
20260831200040 82 203 8.0 14.0 0.00 0.00 0.00 45 1008.6
20260831195531 82 236 7.0 14.0 0.00 0.00 0.00 46 1008.7
20260831195035 82 196 7.0 10.0 0.00 0.00 0.00 45 1008.7
20260831194602 82 238 5.0 10.0 0.00 0.00 0.00 48 1008.8
20260831194030 82 230 5.0 11.0 0.00 0.00 0.00 46 1008.7
20260831193530 81 233 7.0 11.0 0.00 0.00 0.00 46 1008.7
20260831193029 81 187 7.0 11.0 0.00 0.00 0.00 47 1008.7
20260831192532 81 211 6.0 10.0 0.00 0.00 0.00 47 1008.8
20260831192026 81 254 6.0 12.0 0.00 0.00 0.00 49 1008.8
20260831191533 81 238 9.0 12.0 0.00 0.00 0.00 47 1008.8
20260831191026 81 184 5.0 11.0 0.00 0.00 0.00 50 1008.8
20260831190525 81 213 6.0 11.0 0.00 0.00 0.00 51 1008.8
20260831190023 80 240 3.0 10.0 0.00 0.00 0.00 54 1008.8
20260831185522 80 242 4.0 10.0 0.00 0.00 0.00 53 1008.8
20260831185021 80 238 3.0 12.0 0.00 0.00 0.00 52 1008.9
20260831184527 80 259 8.0 12.0 0.00 0.00 0.00 52 1009.0
20260831184020 79 243 4.0 8.0 0.00 0.00 0.00 55 1009.0
20260831183520 79 219 3.0 11.0 0.00 0.00 0.00 53 1009.0
20260831183020 78 230 5.0 11.0 0.00 0.00 0.00 54 1009.0
20260831182519 79 227 5.0 9.0 0.00 0.00 0.00 54 1009.0
20260831182020 79 236 6.0 9.0 0.00 0.00 0.00 53 1009.1
20260831181524 79 246 1.0 8.0 0.00 0.00 0.00 56 1009.0
20260831181017 79 249 4.0 8.0 0.00 0.00 0.00 57 1009.1
20260831180526 79 240 3.0 8.0 0.00 0.00 0.00 55 1009.1
20260831180015 78 240 1.0 8.0 0.00 0.00 0.00 56 1009.1
20260831175514 78 236 3.0 8.0 0.00 0.00 0.00 60 1009.1
20260831175013 78 229 1.0 6.0 0.00 0.00 0.00 59 1009.1
20260831174512 77 239 3.0 10.0 0.00 0.00 0.00 60 1009.1
20260831174011 76 244 5.0 10.0 0.00 0.00 0.00 59 1009.1
20260831173511 77 248 5.0 10.0 0.00 0.00 0.00 61 1009.0
20260831173009 76 223 1.0 7.0 0.00 0.00 0.00 62 1009.1
20260831172509 76 240 2.0 9.0 0.00 0.00 0.00 62 1009.1
20260831172009 76 245 3.0 10.0 0.00 0.00 0.00 61 1009.1
20260831171507 76 244 2.0 8.0 0.00 0.00 0.00 62 1009.1
20260831171006 76 341 2.0 5.0 0.00 0.00 0.00 63 1009.0
20260831170505 76 334 1.0 4.0 0.00 0.00 0.00 63 1009.0
20260831170002 75 327 0.0 8.0 0.00 0.00 0.00 67 1009.1
20260831165502 75 238 2.0 8.0 0.00 0.00 0.00 65 1009.1
20260831165002 75 10 0.0 5.0 0.00 0.00 0.00 68 1009.1
20260831164500 75 11 0.0 5.0 0.00 0.00 0.00 67 1009.2
20260831164103 74 12 0.0 9.0 0.00 0.00 0.00 66 1009.1
20260831163600 75 11 2.0 9.0 0.00 0.00 0.00 67 1009.1
20260831163100 74 355 0.0 4.0 0.00 0.00 0.00 68 1009.1
20260831162558 75 290 0.0 4.0 0.00 0.00 0.00 70 1009.2
20260831162059 74 290 0.0 4.0 0.00 0.00 0.00 71 1009.3
20260831161557 74 11 2.0 4.0 0.00 0.00 0.00 70 1009.3
20260831161057 74 235 1.0 5.0 0.00 0.00 0.00 71 1009.3
20260831160555 74 288 0.0 4.0 0.00 0.00 0.00 74 1009.4
20260831160055 73 344 0.0 4.0 0.00 0.00 0.00 77 1009.4
20260831155552 73 292 0.0 4.0 0.00 0.00 0.00 79 1009.4
20260831155056 72 313 0.0 6.0 0.00 0.00 0.00 80 1009.4
20260831154552 71 316 2.0 7.0 0.00 0.00 0.00 81 1009.4
20260831154050 71 244 3.0 7.0 0.00 0.00 0.00 81 1009.2
20260831153550 71 246 4.0 7.0 0.00 0.00 0.00 81 1009.3
20260831153054 71 249 2.0 7.0 0.00 0.00 0.00 82 1009.3